COSMOS 1275 DEB, 17620

Orbit data source: Space-Track

COSMOS 1275 DEB, 17620 is space debris in LEO originally from a launch on Thu, 04 Jun 1981 UTC launched from the Plesetsk Missile And Space Complex (PKMTR). Debris objects in space refer to the collection of defunct objects orbiting the Earth. Examples of debris include non-operational satellites, rocket bodies, and fragments generated from explosions, collisions, or faulty payload assembly.

Loading next visibility...
Identifier
17620, 1981-053KP
Orbit
LEO
Country
Flag of CISCIS
Related business
Manufacturer
Unknown
Mission
Spacecraft
Bus & Motor
Unknown
Mass
Unknown
Launch date (UTC)
1981-06-04 (45 years ago)
Launch vehicle
Unknown
Launch site
Plesetsk Missile And Space Complex (PKMTR)
Object type
Payload
Rocket body
Debris
Shape & HBR
Unknown shape, 0.1 m
Radar Cross Section
Small (<0.1 m²)

Expand to show TLE details & history
Last TLE update: 19 hours ago

TLE from 19 hours ago
0 COSMOS 1275 DEB
1 17620U 81053KP  25340.76466642  .00011372  00000-0  35900-2 0  9991
2 17620  83.1714 259.0333 0019719 127.5997 232.6990 14.40065770 85945
Epoch: 2025-12-06T18:21Z
TLE epoch observation values (Epoch: 2025-12-06T18:21:07.178Z)
Latitude
-0.00004°
Longitude
-92.03433°
Altitude
769.825 km
Speed
7.465 km/s
True Right ascension
17h 16m 07s
True Declination
0° 00' 00"
Sunlit
Object was in daylight at epoch
Visualization orbit readout
Latitude
Unknown
Longitude
Unknown
Altitude
Unknown
Speed
Unknown
Apparent Right ascension
Unknown
Apparent Declination
Unknown
Sunlit
N/A
Visualization observer readout
Local Sidereal Time
11:41:39
Azimuth
Unknown
Elevation
Unknown
Doppler factor
Unknown
Orbital elements
Apogee altitude
769.398 km
Perigee altitude
741.265 km
Semi-major axis
7,133.469 km
Eccentricity
0.00197
Inclination
83.1714°
RAAN
259.0333°
Arg. of periapsis
127.5997°
True anomaly
232.51952°
Mean anomaly
232.699°
Eccentric anomaly
232.60923°
Mean motion
3.6024 °/min
Orbital period
99.93 mins
BSTAR
0.00359
Loading maneuver chart data...
Computing Atmospheric mass density...

Documentation

Showing up to 5 results
|